N0JVW-13 Weather Reports


Display with metric or nautical units.
time (UTC)temp
F
wind
direction
speed
MPH
gust
MPH
rain 1hr
in
rain 24hr
in
rain mn
in
humidity
%
barometer
mb
20260906012513 87 340 0.0 0.0 0.00 0.00 0.00 62 1009.8
20260906012056 88 341 0.0 0.0 0.00 0.00 0.00 62 1009.9
20260906011545 88 340 0.0 0.0 0.00 0.00 0.00 62 1009.8
20260906011018 88 340 0.0 0.0 0.00 0.00 0.00 62 1009.8
20260906010559 88 340 0.0 0.0 0.00 0.00 0.00 62 1009.7
20260906010039 89 340 0.0 0.0 0.00 0.00 0.00 61 1009.6
20260906005518 89 341 0.0 0.0 0.00 0.00 0.00 61 1009.6
20260906005101 89 340 0.0 0.0 0.00 0.00 0.00 61 1009.6
20260906004540 89 340 0.0 0.0 0.00 0.00 0.00 60 1009.6
20260906004020 90 341 0.0 0.0 0.00 0.00 0.00 60 1009.5
20260906003606 90 340 0.0 0.0 0.00 0.00 0.00 59 1009.6
20260906003044 90 340 0.0 0.0 0.00 0.00 0.00 58 1009.6
20260906002523 91 340 0.0 0.0 0.00 0.00 0.00 57 1009.6
20260906002001 91 341 0.0 0.0 0.00 0.00 0.00 57 1009.7
20260906001541 91 341 0.0 0.0 0.00 0.00 0.00 56 1009.7
20260906001021 91 341 0.0 0.0 0.00 0.00 0.00 56 1009.6
20260906000501 92 341 0.0 0.0 0.00 0.00 0.00 55 1009.6
20260906000051 92 341 0.0 0.0 0.00 0.00 0.00 55 1009.6
20260905235524 92 341 0.0 0.0 0.00 0.00 0.00 54 1009.5
20260905235004 92 340 0.0 0.0 0.00 0.00 0.00 53 1009.6
20260905234554 92 340 0.0 0.0 0.00 0.00 0.00 52 1009.5
20260905234026 93 340 0.0 0.0 0.00 0.00 0.00 52 1009.5
20260905233507 93 341 0.0 1.0 0.00 0.00 0.00 52 1009.5
20260905233049 93 340 0.0 1.0 0.00 0.00 0.00 52 1009.5
20260905232528 93 341 0.0 0.0 0.00 0.00 0.00 52 1009.5
20260905232007 93 341 0.0 0.0 0.00 0.00 0.00 51 1009.4
20260905231554 94 341 0.0 1.0 0.00 0.00 0.00 51 1009.4
20260905231030 94 340 0.0 1.0 0.00 0.00 0.00 50 1009.4
20260905230508 94 341 0.0 1.0 0.00 0.00 0.00 50 1009.4
20260905225532 94 341 0.0 1.0 0.00 0.00 0.00 51 1009.4
20260905225012 94 341 0.0 3.0 0.00 0.00 0.00 50 1009.4
20260905224556 94 341 0.0 3.0 0.00 0.00 0.00 50 1009.3
20260905224035 94 341 0.0 3.0 0.00 0.00 0.00 50 1009.4
20260905223514 94 327 0.0 3.0 0.00 0.00 0.00 50 1009.4
20260905223058 94 327 0.0 3.0 0.00 0.00 0.00 50 1009.4
20260905222538 94 327 0.0 3.0 0.00 0.00 0.00 49 1009.5
20260905222019 94 327 0.0 4.0 0.00 0.00 0.00 50 1009.4
20260905221600 95 327 0.0 4.0 0.00 0.00 0.00 49 1009.5
20260905221041 95 348 0.0 5.0 0.00 0.00 0.00 49 1009.6
20260905220518 95 348 0.0 5.0 0.00 0.00 0.00 50 1009.7
20260905220115 95 340 0.0 6.0 0.00 0.00 0.00 49 1009.7
20260905215542 95 340 1.0 6.0 0.00 0.00 0.00 49 1009.8
20260905215020 95 359 0.0 2.0 0.00 0.00 0.00 49 1009.9
20260905214501 95 359 0.0 2.0 0.00 0.00 0.00 50 1010.0
20260905214045 95 359 0.0 6.0 0.00 0.00 0.00 50 1010.0
20260905213524 95 359 3.0 6.0 0.00 0.00 0.00 49 1010.0
20260905213002 95 353 1.0 4.0 0.00 0.00 0.00 49 1010.1
20260905212546 96 13 0.0 3.0 0.00 0.00 0.00 50 1010.1
20260905212025 96 13 0.0 7.0 0.00 0.00 0.00 49 1010.2
20260905211505 95 15 0.0 7.0 0.00 0.00 0.00 50 1010.2
20260905211049 95 357 1.0 6.0 0.00 0.00 0.00 49 1010.2
20260905210529 95 349 3.0 6.0 0.00 0.00 0.00 48 1010.3
20260905210007 95 6 1.0 6.0 0.00 0.00 0.00 47 1010.3
20260905205553 95 6 2.0 6.0 0.00 0.00 0.00 49 1010.3
20260905205030 95 9 2.0 6.0 0.00 0.00 0.00 49 1010.4
20260905204509 95 351 2.0 4.0 0.00 0.00 0.00 46 1010.3
20260905204053 95 342 0.0 4.0 0.00 0.00 0.00 47 1010.4
20260905203532 94 317 0.0 3.0 0.00 0.00 0.00 47 1010.6
20260905203013 94 317 0.0 2.0 0.00 0.00 0.00 47 1010.7
20260905202555 95 317 0.0 2.0 0.00 0.00 0.00 47 1010.7
20260905202035 95 316 1.0 2.0 0.00 0.00 0.00 46 1010.8
20260905201516 95 316 0.0 1.0 0.00 0.00 0.00 47 1010.8
20260905201059 95 316 0.0 2.0 0.00 0.00 0.00 47 1010.8
20260905200539 95 316 0.0 2.0 0.00 0.00 0.00 44 1010.9
20260905200023 96 316 0.0 1.0 0.00 0.00 0.00 45 1011.0
20260905195602 96 316 0.0 1.0 0.00 0.00 0.00 44 1011.0
20260905195040 96 316 0.0 2.0 0.00 0.00 0.00 43 1011.0
20260905194520 96 317 0.0 0.0 0.00 0.00 0.00 45 1011.1
20260905194105 96 317 0.0 0.0 0.00 0.00 0.00 44 1011.1
20260905193543 96 317 0.0 1.0 0.00 0.00 0.00 45 1011.2
20260905193023 97 317 0.0 1.0 0.00 0.00 0.00 44 1011.2
20260905192504 97 317 0.0 1.0 0.00 0.00 0.00 45 1011.3
20260905192046 96 317 0.0 1.0 0.00 0.00 0.00 46 1011.4
20260905191530 96 317 0.0 0.0 0.00 0.00 0.00 46 1011.3
20260905191005 96 317 0.0 0.0 0.00 0.00 0.00 46 1011.4
20260905190549 96 317 0.0 0.0 0.00 0.00 0.00 44 1011.4
20260905190029 95 317 0.0 1.0 0.00 0.00 0.00 47 1011.5
20260905185508 95 317 0.0 1.0 0.00 0.00 0.00 45 1011.7
20260905185051 95 317 0.0 1.0 0.00 0.00 0.00 46 1011.7
20260905184531 94 317 0.0 0.0 0.00 0.00 0.00 47 1011.7
20260905184012 95 317 0.0 0.0 0.00 0.00 0.00 47 1011.8
20260905183556 95 317 0.0 1.0 0.00 0.00 0.00 45 1011.8
20260905183034 96 317 0.0 1.0 0.00 0.00 0.00 44 1011.9
20260905182513 96 317 0.0 1.0 0.00 0.00 0.00 43 1011.9
20260905182057 96 317 0.0 1.0 0.00 0.00 0.00 43 1012.0
20260905181536 96 317 0.0 1.0 0.00 0.00 0.00 44 1012.1
20260905181015 96 317 0.0 1.0 0.00 0.00 0.00 45 1012.2
20260905180559 96 317 0.0 3.0 0.00 0.00 0.00 46 1012.2
20260905180040 95 317 0.0 3.0 0.00 0.00 0.00 44 1012.3
20260905175518 95 317 0.0 0.0 0.00 0.00 0.00 47 1012.3
20260905175103 95 317 0.0 0.0 0.00 0.00 0.00 48 1012.3
20260905174543 94 317 0.0 1.0 0.00 0.00 0.00 49 1012.3
20260905174021 94 317 0.0 1.0 0.00 0.00 0.00 51 1012.4
20260905173500 94 317 0.0 1.0 0.00 0.00 0.00 49 1012.5
20260905173043 94 317 0.0 0.0 0.00 0.00 0.00 48 1012.6
20260905172524 94 317 0.0 0.0 0.00 0.00 0.00 49 1012.7
20260905172003 93 317 0.0 0.0 0.00 0.00 0.00 49 1012.8
20260905171557 93 317 0.0 0.0 0.00 0.00 0.00 52 1012.9
20260905171027 93 317 0.0 0.0 0.00 0.00 0.00 51 1012.9
20260905170506 93 317 0.0 0.0 0.00 0.00 0.00 52 1012.9
20260905170101 92 317 0.0 0.0 0.00 0.00 0.00 52 1012.9
20260905165534 92 317 0.0 0.0 0.00 0.00 0.00 51 1013.0
20260905165012 92 317 0.0 0.0 0.00 0.00 0.00 52 1013.1
20260905164552 92 317 0.0 2.0 0.00 0.00 0.00 51 1013.0
20260905164032 92 317 0.0 2.0 0.00 0.00 0.00 53 1013.0
20260905163513 92 317 0.0 0.0 0.00 0.00 0.00 54 1013.1
20260905163056 91 317 0.0 0.0 0.00 0.00 0.00 54 1013.0
20260905162533 91 317 0.0 0.0 0.00 0.00 0.00 55 1013.0
20260905162013 91 317 0.0 0.0 0.00 0.00 0.00 55 1013.0
20260905161557 91 317 0.0 0.0 0.00 0.00 0.00 54 1013.0
20260905161035 91 317 0.0 0.0 0.00 0.00 0.00 55 1013.1
20260905160515 90 317 0.0 0.0 0.00 0.00 0.00 56 1013.0
20260905160108 90 317 0.0 0.0 0.00 0.00 0.00 57 1013.0
20260905155538 90 317 0.0 0.0 0.00 0.00 0.00 59 1013.0
20260905155018 89 317 0.0 0.0 0.00 0.00 0.00 59 1012.9
20260905154641 89 92 0.0 0.0 0.00 0.00 0.00 60 1012.9
20260905154044 89 92 0.0 0.0 0.00 0.00 0.00 59 1012.9
20260905153519 89 152 0.0 0.0 0.00 0.00 0.00 61 1012.9
20260905153104 88 152 0.0 0.0 0.00 0.00 0.00 60 1012.9
20260905152542 88 152 0.0 0.0 0.00 0.00 0.00 62 1012.9
20260905152021 88 152 0.0 0.0 0.00 0.00 0.00 64 1012.9
20260905151501 87 152 0.0 0.0 0.00 0.00 0.00 65 1012.9
20260905151043 87 152 0.0 0.0 0.00 0.00 0.00 65 1012.9
20260905150525 86 152 0.0 0.0 0.00 0.00 0.00 67 1012.8
20260905150005 86 152 0.0 0.0 0.00 0.00 0.00 66 1012.8
20260905145549 85 152 0.0 0.0 0.00 0.00 0.00 68 1012.8
20260905145028 85 152 0.0 0.0 0.00 0.00 0.00 68 1012.8
20260905144507 84 152 0.0 0.0 0.00 0.00 0.00 69 1012.7
20260905144051 84 152 0.0 0.0 0.00 0.00 0.00 70 1012.6
20260905143532 83 152 0.0 0.0 0.00 0.00 0.00 70 1012.7
20260905143010 82 152 0.0 0.0 0.00 0.00 0.00 71 1012.6
20260905142555 82 152 0.0 0.0 0.00 0.00 0.00 71 1012.6
20260905142034 81 152 0.0 0.0 0.00 0.00 0.00 71 1012.6
20260905141514 81 152 0.0 0.0 0.00 0.00 0.00 70 1012.6
20260905141057 80 152 0.0 0.0 0.00 0.00 0.00 69 1012.7
20260905140536 80 152 0.0 0.0 0.00 0.00 0.00 66 1012.7
20260905140016 79 152 0.0 0.0 0.00 0.00 0.00 63 1012.6
20260905135559 79 152 0.0 0.0 0.00 0.00 0.00 62 1012.6
20260905135038 79 152 0.0 0.0 0.00 0.00 0.00 61 1012.6
20260905134522 78 152 0.0 0.0 0.00 0.00 0.00 62 1012.5
20260905134103 78 152 0.0 0.0 0.00 0.00 0.00 59 1012.4
20260905133540 77 152 0.0 0.0 0.00 0.00 0.00 56 1012.4
20260905133020 77 152 0.0 0.0 0.00 0.00 0.00 55 1012.3
20260905132604 77 152 0.0 0.0 0.00 0.00 0.00 52 1012.3
20260905132044 77 152 0.0 0.0 0.00 0.00 0.00 51 1012.3
20260905131533 77 152 0.0 0.0 0.00 0.00 0.00 51 1012.2
20260905131002 76 152 0.0 0.0 0.00 0.00 0.00 49 1012.2
20260905130551 76 152 0.0 0.0 0.00 0.00 0.00 48 1012.1
20260905130026 76 152 0.0 0.0 0.00 0.00 0.00 49 1012.0
20260905125505 76 152 0.0 0.0 0.00 0.00 0.00 50 1012.0
20260905125048 76 152 0.0 0.0 0.00 0.00 0.00 50 1011.9
20260905124527 75 152 0.0 0.0 0.00 0.00 0.00 49 1011.9
20260905124006 75 152 0.0 0.0 0.00 0.00 0.00 47 1011.9
20260905123550 75 152 0.0 0.0 0.00 0.00 0.00 47 1011.9
20260905123037 75 152 0.0 0.0 0.00 0.00 0.00 47 1011.8
20260905122509 75 152 0.0 0.0 0.00 0.00 0.00 47 1011.7
20260905122051 75 152 0.0 0.0 0.00 0.00 0.00 47 1011.7
20260905121537 75 152 0.0 0.0 0.00 0.00 0.00 52 1011.7
20260905121011 75 152 0.0 0.0 0.00 0.00 0.00 51 1011.7
20260905120554 75 152 0.0 0.0 0.00 0.00 0.00 49 1011.8
20260905120041 75 152 0.0 0.0 0.00 0.00 0.00 54 1011.7
20260905115513 75 152 0.0 0.0 0.00 0.00 0.00 54 1011.6
20260905115058 76 152 0.0 0.0 0.00 0.00 0.00 52 1011.6
20260905114537 76 152 0.0 0.0 0.00 0.00 0.00 54 1011.5
20260905114016 76 152 0.0 0.0 0.00 0.00 0.00 58 1011.4
20260905113556 76 149 0.0 0.0 0.00 0.00 0.00 58 1011.3
20260905113035 76 148 0.0 0.0 0.00 0.00 0.00 58 1011.3
20260905112515 76 127 0.0 1.0 0.00 0.00 0.00 58 1011.3
20260905112102 76 127 0.0 1.0 0.00 0.00 0.00 60 1011.2
20260905111552 76 127 0.0 0.0 0.00 0.00 0.00 59 1011.2
20260905111017 76 127 0.0 1.0 0.00 0.00 0.00 57 1011.1
20260905110600 76 127 0.0 1.0 0.00 0.00 0.00 56 1011.1
20260905110042 76 127 0.0 0.0 0.00 0.00 0.00 55 1010.9
20260905105520 76 127 0.0 0.0 0.00 0.00 0.00 56 1011.0
20260905105101 76 127 0.0 0.0 0.00 0.00 0.00 58 1011.0
20260905104604 76 127 0.0 0.0 0.00 0.00 0.00 58 1010.9
20260905104021 76 127 0.0 0.0 0.00 0.00 0.00 58 1010.9
20260905103605 76 127 0.0 0.0 0.00 0.00 0.00 59 1010.8
20260905103044 76 127 0.0 0.0 0.00 0.00 0.00 58 1010.8
20260905102523 76 127 0.0 0.0 0.00 0.00 0.00 58 1010.9
20260905102002 76 127 0.0 0.0 0.00 0.00 0.00 58 1010.9
20260905101550 76 127 0.0 0.0 0.00 0.00 0.00 58 1010.9
20260905101025 76 127 0.0 0.0 0.00 0.00 0.00 58 1011.0
20260905100505 76 127 0.0 0.0 0.00 0.00 0.00 57 1011.0
20260905100049 76 127 0.0 0.0 0.00 0.00 0.00 57 1010.9
20260905095529 76 127 0.0 0.0 0.00 0.00 0.00 57 1011.0
20260905095010 76 127 0.0 0.0 0.00 0.00 0.00 56 1011.0
20260905094659 76 127 0.0 0.0 0.00 0.00 0.00 58 1010.9
20260905094032 76 127 0.0 0.0 0.00 0.00 0.00 60 1011.0
20260905093510 76 127 0.0 0.0 0.00 0.00 0.00 61 1010.9
20260905093103 76 127 0.0 0.0 0.00 0.00 0.00 62 1010.9
20260905092535 76 127 0.0 0.0 0.00 0.00 0.00 62 1010.9
20260905092016 76 127 0.0 0.0 0.00 0.00 0.00 62 1010.9
20260905091602 76 127 0.0 0.0 0.00 0.00 0.00 62 1010.9
20260905091035 76 127 0.0 0.0 0.00 0.00 0.00 62 1011.0
20260905090517 77 127 0.0 0.0 0.00 0.00 0.00 62 1010.9
20260905090059 77 127 0.0 0.0 0.00 0.00 0.00 62 1010.9
20260905085538 77 127 0.0 0.0 0.00 0.00 0.00 64 1010.8
20260905085022 77 127 0.0 0.0 0.00 0.00 0.00 64 1010.8
20260905084609 77 127 0.0 0.0 0.00 0.00 0.00 64 1010.8
20260905084044 77 127 0.0 0.0 0.00 0.00 0.00 65 1010.8
20260905083521 77 127 0.0 0.0 0.00 0.00 0.00 66 1010.9
20260905083104 77 127 0.0 0.0 0.00 0.00 0.00 67 1010.9
20260905082545 77 127 0.0 0.0 0.00 0.00 0.00 67 1010.9
20260905082024 77 127 0.0 0.0 0.00 0.00 0.00 67 1010.8
20260905081502 78 127 0.0 0.0 0.00 0.00 0.00 67 1010.8
20260905081045 78 127 0.0 0.0 0.00 0.00 0.00 66 1010.8
20260905080527 78 127 0.0 0.0 0.00 0.00 0.00 68 1010.9
20260905080006 78 127 0.0 0.0 0.00 0.00 0.00 68 1010.8
20260905075548 78 127 0.0 0.0 0.00 0.00 0.00 69 1010.8
20260905075030 78 127 0.0 0.0 0.00 0.00 0.00 69 1010.8
20260905074506 78 127 0.0 0.0 0.00 0.00 0.00 69 1010.7
20260905074050 78 127 0.0 0.0 0.00 0.00 0.00 70 1010.8
20260905073529 78 127 0.0 0.0 0.00 0.00 0.00 70 1010.8
20260905073009 78 127 0.0 0.0 0.00 0.00 0.00 70 1010.7
20260905072551 78 127 0.0 0.0 0.00 0.00 0.00 71 1010.7
20260905072031 78 127 0.0 0.0 0.00 0.00 0.00 70 1010.8
20260905071511 78 127 0.0 0.0 0.00 0.00 0.00 70 1010.8
20260905071054 78 127 0.0 0.0 0.00 0.00 0.00 70 1010.9
20260905070533 78 127 0.0 0.0 0.00 0.00 0.00 70 1011.0
20260905070013 78 127 0.0 0.0 0.00 0.00 0.00 70 1010.9
20260905065557 78 127 0.0 0.0 0.00 0.00 0.00 70 1011.0
20260905065035 78 127 0.0 0.0 0.00 0.00 0.00 70 1010.9
20260905064516 78 127 0.0 0.0 0.00 0.00 0.00 70 1010.9
20260905064059 78 127 0.0 0.0 0.00 0.00 0.00 70 1011.0
20260905063538 78 127 0.0 0.0 0.00 0.00 0.00 70 1011.0
20260905063018 78 127 0.0 0.0 0.00 0.00 0.00 70 1010.9
20260905062602 79 127 0.0 0.0 0.00 0.00 0.00 70 1011.0
20260905062042 78 127 0.0 0.0 0.00 0.00 0.00 71 1011.0
20260905061529 79 127 0.0 0.0 0.00 0.00 0.00 70 1011.1
20260905061105 79 127 0.0 0.0 0.00 0.00 0.00 70 1011.1
20260905060543 79 127 0.0 0.0 0.00 0.00 0.00 71 1011.1
20260905060046 79 127 0.0 0.0 0.00 0.00 0.00 71 1011.1
20260905055502 79 127 0.0 0.0 0.00 0.00 0.00 71 1011.1
20260905055046 79 127 0.0 0.0 0.00 0.00 0.00 71 1011.1
20260905054534 79 127 0.0 0.0 0.00 0.00 0.00 71 1011.1
20260905054005 79 127 0.0 0.0 0.00 0.00 0.00 70 1011.1
20260905053551 79 127 0.0 0.0 0.00 0.00 0.00 70 1011.1
20260905053029 79 127 0.0 0.0 0.00 0.00 0.00 70 1011.1
20260905052508 79 127 0.0 0.0 0.00 0.00 0.00 70 1011.2
20260905052054 79 127 0.0 0.0 0.00 0.00 0.00 70 1011.2
20260905051537 79 127 0.0 0.0 0.00 0.00 0.00 70 1011.2
20260905051010 79 127 0.0 0.0 0.00 0.00 0.00 70 1011.1
20260905050553 79 127 0.0 0.0 0.00 0.00 0.00 71 1011.1
20260905050035 79 127 0.0 0.0 0.00 0.00 0.00 71 1011.1
20260905045516 79 127 0.0 0.0 0.00 0.00 0.00 71 1011.1
20260905045058 79 127 0.0 0.0 0.00 0.00 0.00 71 1011.2
20260905044540 79 127 0.0 0.0 0.00 0.00 0.00 71 1011.2
20260905044017 79 127 0.0 0.0 0.00 0.00 0.00 71 1011.0
20260905043601 79 127 0.0 0.0 0.00 0.00 0.00 71 1010.9
20260905043042 79 127 0.0 0.0 0.00 0.00 0.00 71 1010.9
20260905042520 80 127 0.0 0.0 0.00 0.00 0.00 71 1010.9
20260905042001 80 127 0.0 0.0 0.00 0.00 0.00 71 1010.9
20260905041545 80 127 0.0 0.0 0.00 0.00 0.00 71 1010.8
20260905041024 80 127 0.0 0.0 0.00 0.00 0.00 71 1010.9
20260905040504 80 126 0.0 0.0 0.00 0.00 0.00 71 1010.9
20260905040058 80 127 0.0 0.0 0.00 0.00 0.00 71 1010.8
20260905035530 81 127 0.0 0.0 0.00 0.00 0.00 71 1010.9
20260905035006 81 127 0.0 0.0 0.00 0.00 0.00 71 1011.0
20260905034550 81 127 0.0 0.0 0.00 0.00 0.00 71 1011.0
20260905034029 81 127 0.0 0.0 0.00 0.00 0.00 71 1011.0
20260905033509 81 127 0.0 0.0 0.00 0.00 0.00 71 1011.0
20260905033104 81 127 0.0 0.0 0.00 0.00 0.00 71 1010.9
20260905032533 81 127 0.0 0.0 0.00 0.00 0.00 71 1010.9
20260905032012 81 127 0.0 0.0 0.00 0.00 0.00 71 1010.9
20260905031559 81 127 0.0 0.0 0.00 0.00 0.00 71 1010.9
20260905031035 81 127 0.0 0.0 0.00 0.00 0.00 71 1010.9
20260905030515 81 127 0.0 0.0 0.00 0.00 0.00 71 1010.8
20260905030109 82 127 0.0 0.0 0.00 0.00 0.00 71 1010.9
20260905025541 82 127 0.0 0.0 0.00 0.00 0.00 71 1010.8
20260905025017 82 127 0.0 0.0 0.00 0.00 0.00 71 1010.7
20260905024612 82 127 0.0 0.0 0.00 0.00 0.00 71 1010.7
20260905024042 82 127 0.0 0.0 0.00 0.00 0.00 71 1010.6
20260905023519 82 127 0.0 0.0 0.00 0.00 0.00 70 1010.5
20260905023101 82 127 0.0 0.0 0.00 0.00 0.00 69 1010.5
20260905022544 82 127 0.0 0.0 0.00 0.00 0.00 69 1010.5
20260905022019 83 127 0.0 0.0 0.00 0.00 0.00 68 1010.4
20260905021615 83 127 0.0 0.0 0.00 0.00 0.00 68 1010.2
20260905021042 83 127 0.0 0.0 0.00 0.00 0.00 68 1010.2
20260905020522 83 127 0.0 0.0 0.00 0.00 0.00 68 1010.1
20260905020002 83 127 0.0 0.0 0.00 0.00 0.00 68 1010.0
20260905015547 84 127 0.0 0.0 0.00 0.00 0.00 67 1010.0
20260905015027 84 127 0.0 0.0 0.00 0.00 0.00 67 1010.0
20260905014506 84 127 0.0 0.0 0.00 0.00 0.00 66 1009.9
20260905014048 84 127 0.0 0.0 0.00 0.00 0.00 65 1009.8
20260905013527 85 127 0.0 0.0 0.00 0.00 0.00 65 1009.8